KG6SIB Weather Reports


Display with metric or nautical units.
time (UTC)temp
F
wind
direction
speed
MPH
gust
MPH
rain 1hr
in
rain 24hr
in
rain mn
in
humidity
%
barometer
mb
20210622042938 65 54 3.0 7.0 0.00 0.00 0.00 52 1017.3
20210622042438 65 46 4.0 7.0 0.00 0.00 0.00 53 1017.3
20210622041938 66 51 3.0 8.0 0.00 0.00 0.00 52 1017.4
20210622041439 66 46 5.0 8.0 0.00 0.00 0.00 53 1017.4
20210622040939 67 48 6.0 7.0 0.00 0.00 0.00 54 1017.6
20210622040439 67 45 5.0 9.0 0.00 0.00 0.00 54 1017.6
20210622035939 68 42 4.0 9.0 0.00 0.00 0.00 54 1017.2
20210622035438 68 49 4.0 6.0 0.00 0.00 0.00 54 1017.2
20210622034938 69 53 4.0 6.0 0.00 0.00 0.00 54 1017.4
20210622034437 69 54 4.0 5.0 0.00 0.00 0.00 53 1017.3
20210622033938 70 61 5.0 5.0 0.00 0.00 0.00 53 1017.4
20210622033437 71 56 1.0 7.0 0.00 0.00 0.00 53 1017.5
20210622032938 71 55 3.0 7.0 0.00 0.00 0.00 52 1017.5
20210622032437 72 51 4.0 4.0 0.00 0.00 0.00 52 1017.5
20210622031938 72 146 0.0 3.0 0.00 0.00 0.00 52 1017.5
20210622031438 73 202 0.0 4.0 0.00 0.00 0.00 51 1017.7
20210622030937 73 202 1.0 4.0 0.00 0.00 0.00 51 1017.6
20210622030437 73 209 2.0 6.0 0.00 0.00 0.00 51 1017.7
20210622025937 74 190 2.0 6.0 0.00 0.00 0.00 50 1017.0
20210622025437 74 188 4.0 6.0 0.00 0.00 0.00 50 1017.0
20210622024936 75 187 4.0 6.0 0.00 0.00 0.00 49 1017.0
20210622024436 75 198 4.0 6.0 0.00 0.00 0.00 48 1017.0
20210622023935 76 199 5.0 5.0 0.00 0.00 0.00 47 1017.2
20210622023436 77 194 2.0 5.0 0.00 0.00 0.00 46 1017.2
20210622022935 77 211 2.0 5.0 0.00 0.00 0.00 45 1017.2
20210622022435 78 195 2.0 5.0 0.00 0.00 0.00 44 1017.3
20210622021935 79 205 3.0 6.0 0.00 0.00 0.00 43 1017.3
20210622021435 80 214 5.0 6.0 0.00 0.00 0.00 42 1017.4
20210622020935 80 264 6.0 8.0 0.00 0.00 0.00 41 1017.4
20210622020434 81 223 1.0 8.0 0.00 0.00 0.00 40 1017.5
20210622015934 81 275 4.0 7.0 0.00 0.00 0.00 39 1016.4
20210622015434 82 286 2.0 8.0 0.00 0.00 0.00 39 1016.4
20210622014934 82 246 3.0 9.0 0.00 0.00 0.00 39 1016.3
20210622014434 82 248 5.0 9.0 0.00 0.00 0.00 38 1016.3
20210622013933 82 261 4.0 10.0 0.00 0.00 0.00 38 1016.3
20210622013434 83 268 4.0 10.0 0.00 0.00 0.00 38 1016.6
20210622012933 83 229 5.0 9.0 0.00 0.00 0.00 37 1016.5
20210622012433 84 261 1.0 7.0 0.00 0.00 0.00 36 1016.5
20210622011933 84 288 5.0 7.0 0.00 0.00 0.00 36 1016.5
20210622010916 85 254 7.0 9.0 0.00 0.00 0.00 35 1016.8
20210622010445 85 250 5.0 9.0 0.00 0.00 0.00 34 1016.8
20210622005915 85 270 7.0 11.0 0.00 0.00 0.00 34 1016.3
20210622005415 85 240 4.0 11.0 0.00 0.00 0.00 34 1016.3
20210622004916 85 271 7.0 14.0 0.00 0.00 0.00 33 1016.2
20210622004414 86 236 4.0 14.0 0.00 0.00 0.00 33 1016.4
20210622003914 86 288 12.0 13.0 0.00 0.00 0.00 33 1016.4
20210622003415 86 242 6.0 12.0 0.00 0.00 0.00 33 1016.4
20210622002914 86 238 4.0 14.0 0.00 0.00 0.00 32 1016.4
20210622002414 87 298 10.0 14.0 0.00 0.00 0.00 31 1016.6
20210622001913 87 259 6.0 11.0 0.00 0.00 0.00 32 1016.7
20210622001413 87 288 4.0 12.0 0.00 0.00 0.00 31 1016.7
20210622000913 87 257 9.0 14.0 0.00 0.00 0.00 32 1016.8
20210622000443 87 241 12.0 14.0 0.00 0.00 0.00 32 1016.8
20210621235913 87 318 10.0 12.0 0.00 0.00 0.00 32 1016.6
20210621235413 87 257 7.0 12.0 0.00 0.00 0.00 31 1016.7
20210621234914 88 292 5.0 13.0 0.00 0.00 0.00 31 1016.9
20210621234444 88 288 3.0 13.0 0.00 0.00 0.00 31 1017.0
20210621233913 88 273 8.0 13.0 0.00 0.00 0.00 31 1017.0
20210621233412 88 258 2.0 15.0 0.00 0.00 0.00 31 1017.0
20210621232912 88 223 5.0 15.0 0.00 0.00 0.00 30 1016.9
20210621232412 89 254 11.0 17.0 0.00 0.00 0.00 30 1017.0
20210621231912 89 243 11.0 17.0 0.00 0.00 0.00 29 1016.8
20210621231443 89 250 10.0 13.0 0.00 0.00 0.00 28 1016.8
20210621230911 90 284 7.0 17.0 0.00 0.00 0.00 29 1017.3
20210621230442 89 240 9.0 17.0 0.00 0.00 0.00 29 1016.9
20210621225941 89 228 8.0 15.0 0.00 0.00 0.00 29 1017.2
20210621225442 89 297 5.0 15.0 0.00 0.00 0.00 28 1017.2
20210621224941 90 304 8.0 12.0 0.00 0.00 0.00 28 1017.3
20210621224411 90 295 5.0 12.0 0.00 0.00 0.00 28 1017.3
20210621223911 90 273 7.0 12.0 0.00 0.00 0.00 28 1017.4
20210621223411 90 259 10.0 12.0 0.00 0.00 0.00 27 1017.4
20210621222911 90 269 10.0 11.0 0.00 0.00 0.00 27 1017.4
20210621222441 90 312 4.0 13.0 0.00 0.00 0.00 28 1017.6
20210621221940 90 248 10.0 13.0 0.00 0.00 0.00 28 1017.6
20210621221440 89 263 8.0 13.0 0.00 0.00 0.00 27 1017.6
20210621220940 90 291 8.0 13.0 0.00 0.00 0.00 27 1017.6
20210621220440 90 252 8.0 14.0 0.00 0.00 0.00 26 1017.6
20210621215940 90 264 7.0 14.0 0.00 0.00 0.00 25 1017.7
20210621215439 91 232 6.0 14.0 0.00 0.00 0.00 25 1017.9
20210621214939 90 269 8.0 14.0 0.00 0.00 0.00 25 1017.7
20210621214439 90 17 3.0 12.0 0.00 0.00 0.00 24 1017.7
20210621213939 90 258 6.0 14.0 0.00 0.00 0.00 23 1017.8
20210621213439 90 292 4.0 14.0 0.00 0.00 0.00 22 1017.7
20210621212939 90 272 8.0 12.0 0.00 0.00 0.00 23 1017.8
20210621212438 90 238 5.0 12.0 0.00 0.00 0.00 24 1017.8
20210621211938 91 288 12.0 12.0 0.00 0.00 0.00 25 1018.1
20210621211438 90 287 4.0 11.0 0.00 0.00 0.00 24 1018.0
20210621210939 91 273 7.0 12.0 0.00 0.00 0.00 25 1018.3
20210621210438 90 290 4.0 13.0 0.00 0.00 0.00 24 1018.0
20210621205938 90 311 8.0 13.0 0.00 0.00 0.00 24 1018.0
20210621205438 90 298 4.0 15.0 0.00 0.00 0.00 24 1018.1
20210621204939 91 273 10.0 15.0 0.00 0.00 0.00 23 1018.0
20210621204437 91 257 10.0 12.0 0.00 0.00 0.00 22 1018.1
20210621203937 91 237 7.0 12.0 0.00 0.00 0.00 22 1018.1
20210621203437 90 239 8.0 15.0 0.00 0.00 0.00 23 1018.0
20210621202937 90 271 1.0 15.0 0.00 0.00 0.00 23 1018.1
20210621202438 90 249 7.0 12.0 0.00 0.00 0.00 23 1018.2
20210621201937 90 225 5.0 12.0 0.00 0.00 0.00 23 1018.3
20210621201438 90 284 9.0 12.0 0.00 0.00 0.00 21 1018.2
20210621200936 91 249 5.0 13.0 0.00 0.00 0.00 22 1018.3
20210621200437 91 267 10.0 13.0 0.00 0.00 0.00 19 1018.2
20210621195936 90 258 9.0 13.0 0.00 0.00 0.00 23 1018.4
20210621195436 90 314 11.0 13.0 0.00 0.00 0.00 22 1018.3
20210621194935 91 275 8.0 13.0 0.00 0.00 0.00 20 1018.3
20210621194436 91 274 4.0 12.0 0.00 0.00 0.00 18 1018.3
20210621193936 91 283 6.0 12.0 0.00 0.00 0.00 20 1018.4
20210621193436 91 246 5.0 13.0 0.00 0.00 0.00 15 1018.3
20210621192935 91 292 11.0 13.0 0.00 0.00 0.00 18 1018.4
20210621192435 90 238 6.0 11.0 0.00 0.00 0.00 19 1018.5
20210621191935 90 265 4.0 11.0 0.00 0.00 0.00 19 1018.5
20210621190930 90 309 2.0 10.0 0.00 0.00 0.00 17 1018.5
20210621190432 90 306 3.0 10.0 0.00 0.00 0.00 17 1018.4
20210621185931 91 270 6.0 10.0 0.00 0.00 0.00 17 1018.8
20210621185431 90 244 2.0 11.0 0.00 0.00 0.00 17 1018.4
20210621184930 90 65 2.0 11.0 0.00 0.00 0.00 19 1018.4
20210621184430 91 258 6.0 10.0 0.00 0.00 0.00 19 1018.7
20210621183931 90 307 10.0 10.0 0.00 0.00 0.00 20 1018.4
20210621183431 90 294 5.0 9.0 0.00 0.00 0.00 19 1018.4
20210621182930 90 100 1.0 11.0 0.00 0.00 0.00 20 1018.4
20210621182431 89 292 4.0 11.0 0.00 0.00 0.00 20 1018.5
20210621181930 89 296 3.0 10.0 0.00 0.00 0.00 21 1018.5
20210621181429 89 315 8.0 10.0 0.00 0.00 0.00 20 1018.5
20210621180929 89 50 4.0 10.0 0.00 0.00 0.00 21 1018.4
20210621180429 89 281 2.0 9.0 0.00 0.00 0.00 20 1018.4
20210621175929 90 17 1.0 9.0 0.00 0.00 0.00 20 1018.6
20210621175429 90 268 6.0 9.0 0.00 0.00 0.00 19 1018.4
20210621174928 90 228 5.0 9.0 0.00 0.00 0.00 20 1018.4
20210621174431 90 299 7.0 7.0 0.00 0.00 0.00 19 1018.4
20210621173929 90 279 7.0 8.0 0.00 0.00 0.00 19 1018.4
20210621173428 90 207 4.0 9.0 0.00 0.00 0.00 20 1018.5
20210621172928 90 248 4.0 9.0 0.00 0.00 0.00 19 1018.4
20210621172428 90 207 4.0 7.0 0.00 0.00 0.00 20 1018.3
20210621171930 90 171 4.0 9.0 0.00 0.00 0.00 20 1018.4
20210621171428 89 207 1.0 9.0 0.00 0.00 0.00 20 1018.2
20210621170928 89 180 4.0 7.0 0.00 0.00 0.00 21 1018.2
20210621170427 89 289 2.0 7.0 0.00 0.00 0.00 22 1018.3
20210621165928 89 290 2.0 8.0 0.00 0.00 0.00 22 1018.5
20210621165428 88 302 1.0 8.0 0.00 0.00 0.00 21 1018.3
20210621164928 88 208 6.0 7.0 0.00 0.00 0.00 23 1018.3
20210621164427 88 194 0.0 4.0 0.00 0.00 0.00 22 1018.3
20210621163926 88 175 1.0 5.0 0.00 0.00 0.00 23 1018.2
20210621163426 87 252 3.0 5.0 0.00 0.00 0.00 22 1017.9
20210621162927 87 184 1.0 3.0 0.00 0.00 0.00 24 1017.9
20210621162427 87 184 0.0 3.0 0.00 0.00 0.00 25 1018.0
20210621161927 86 196 0.0 7.0 0.00 0.00 0.00 25 1017.8
20210621161426 85 196 3.0 7.0 0.00 0.00 0.00 26 1017.6
20210621160927 85 223 5.0 7.0 0.00 0.00 0.00 24 1017.5
20210621160425 85 145 3.0 5.0 0.00 0.00 0.00 25 1017.7
20210621155928 85 190 2.0 5.0 0.00 0.00 0.00 26 1017.8
20210621155426 84 190 1.0 5.0 0.00 0.00 0.00 26 1017.9
20210621154925 84 174 1.0 5.0 0.00 0.00 0.00 26 1017.9
20210621154426 84 80 1.0 4.0 0.00 0.00 0.00 26 1017.8
20210621153925 83 79 1.0 4.0 0.00 0.00 0.00 26 1017.5
20210621153426 83 79 2.0 3.0 0.00 0.00 0.00 27 1017.6
20210621152928 82 79 0.0 1.0 0.00 0.00 0.00 28 1017.6
20210621152425 81 79 0.0 0.0 0.00 0.00 0.00 27 1017.3
20210621151925 80 79 0.0 0.0 0.00 0.00 0.00 29 1017.2
20210621151424 80 79 0.0 1.0 0.00 0.00 0.00 29 1017.1
20210621150924 79 79 0.0 2.0 0.00 0.00 0.00 30 1017.0
20210621150425 79 79 0.0 3.0 0.00 0.00 0.00 33 1017.0
20210621145925 78 79 2.0 4.0 0.00 0.00 0.00 36 1017.6
20210621145423 77 79 3.0 5.0 0.00 0.00 0.00 37 1017.4
20210621144923 76 79 3.0 5.0 0.00 0.00 0.00 40 1017.4
20210621144424 75 79 2.0 5.0 0.00 0.00 0.00 39 1017.1
20210621143923 74 79 3.0 8.0 0.00 0.00 0.00 40 1017.1
20210621143423 72 74 5.0 8.0 0.00 0.00 0.00 42 1016.9
20210621142923 71 72 5.0 7.0 0.00 0.00 0.00 42 1016.7
20210621142423 70 65 3.0 8.0 0.00 0.00 0.00 43 1016.5
20210621141923 70 80 4.0 8.0 0.00 0.00 0.00 43 1016.6
20210621141422 69 63 6.0 8.0 0.00 0.00 0.00 45 1016.5
20210621140923 68 72 4.0 8.0 0.00 0.00 0.00 45 1016.4
20210621140422 67 57 6.0 9.0 0.00 0.00 0.00 45 1016.1
20210621135922 66 59 5.0 9.0 0.00 0.00 0.00 46 1016.7
20210621135422 65 59 5.0 9.0 0.00 0.00 0.00 46 1016.4
20210621134922 64 71 4.0 8.0 0.00 0.00 0.00 47 1016.3
20210621134421 63 65 6.0 8.0 0.00 0.00 0.00 49 1016.1
20210621133921 62 56 5.0 9.0 0.00 0.00 0.00 48 1016.1
20210621133421 62 62 8.0 9.0 0.00 0.00 0.00 48 1016.0
20210621132921 61 62 6.0 9.0 0.00 0.00 0.00 48 1015.7
20210621132422 61 65 8.0 9.0 0.00 0.00 0.00 47 1015.6
20210621131921 61 46 4.0 9.0 0.00 0.00 0.00 47 1015.7
20210621130941 61 52 5.0 10.0 0.00 0.00 0.00 46 1015.5
20210621130441 61 53 7.0 9.0 0.00 0.00 0.00 46 1015.5
20210621125942 61 59 6.0 10.0 0.00 0.00 0.00 46 1015.9
20210621125441 60 65 4.0 10.0 0.00 0.00 0.00 46 1015.6
20210621124941 60 51 4.0 9.0 0.00 0.00 0.00 46 1015.5
20210621124441 60 63 8.0 9.0 0.00 0.00 0.00 46 1015.5
20210621123941 61 45 4.0 10.0 0.00 0.00 0.00 46 1015.7
20210621123411 61 72 9.0 10.0 0.00 0.00 0.00 45 1015.6
20210621122940 61 59 6.0 10.0 0.00 0.00 0.00 44 1015.6
20210621122440 61 67 9.0 9.0 0.00 0.00 0.00 44 1015.6
20210621121940 61 65 5.0 8.0 0.00 0.00 0.00 45 1015.5
20210621121440 61 30 6.0 9.0 0.00 0.00 0.00 45 1015.5
20210621120940 61 60 3.0 10.0 0.00 0.00 0.00 45 1015.4
20210621120439 61 66 8.0 10.0 0.00 0.00 0.00 45 1015.4
20210621115910 61 56 4.0 10.0 0.00 0.00 0.00 45 1015.9
20210621115439 61 45 4.0 10.0 0.00 0.00 0.00 45 1015.8
20210621114939 61 42 7.0 10.0 0.00 0.00 0.00 45 1015.9
20210621114409 61 51 5.0 9.0 0.00 0.00 0.00 45 1015.8
20210621113938 61 56 4.0 9.0 0.00 0.00 0.00 45 1015.8
20210621113439 61 41 6.0 9.0 0.00 0.00 0.00 45 1015.7
20210621112939 61 60 6.0 10.0 0.00 0.00 0.00 44 1015.7
20210621112438 61 69 6.0 10.0 0.00 0.00 0.00 44 1015.6
20210621111938 61 46 7.0 9.0 0.00 0.00 0.00 44 1015.6
20210621111438 61 52 4.0 9.0 0.00 0.00 0.00 44 1015.7
20210621110938 61 58 6.0 9.0 0.00 0.00 0.00 44 1015.6
20210621110438 61 57 6.0 10.0 0.00 0.00 0.00 44 1015.6
20210621105937 61 56 5.0 10.0 0.00 0.00 0.00 44 1015.6
20210621105438 61 31 9.0 11.0 0.00 0.00 0.00 44 1015.6
20210621104939 61 72 8.0 11.0 0.00 0.00 0.00 44 1015.7
20210621104437 60 54 7.0 10.0 0.00 0.00 0.00 45 1015.5
20210621103937 60 59 5.0 10.0 0.00 0.00 0.00 45 1015.6
20210621103438 60 61 5.0 10.0 0.00 0.00 0.00 46 1015.6
20210621102937 60 61 6.0 9.0 0.00 0.00 0.00 45 1015.5
20210621102436 60 56 4.0 10.0 0.00 0.00 0.00 45 1015.4
20210621101937 61 60 7.0 10.0 0.00 0.00 0.00 44 1015.4
20210621101436 61 57 4.0 9.0 0.00 0.00 0.00 44 1015.4
20210621100937 61 71 5.0 10.0 0.00 0.00 0.00 43 1015.2
20210621100436 61 56 9.0 10.0 0.00 0.00 0.00 43 1015.1
20210621095936 61 27 4.0 9.0 0.00 0.00 0.00 43 1015.3
20210621095436 61 49 6.0 11.0 0.00 0.00 0.00 42 1015.3
20210621094935 61 59 5.0 11.0 0.00 0.00 0.00 42 1015.2
20210621094436 61 79 8.0 10.0 0.00 0.00 0.00 41 1015.2
20210621093935 61 50 7.0 10.0 0.00 0.00 0.00 41 1015.3
20210621093436 61 53 3.0 10.0 0.00 0.00 0.00 41 1015.2
20210621092935 61 57 4.0 10.0 0.00 0.00 0.00 41 1015.3
20210621092435 61 57 5.0 10.0 0.00 0.00 0.00 41 1015.3
20210621091935 61 70 8.0 10.0 0.00 0.00 0.00 41 1015.2
20210621091434 61 40 7.0 10.0 0.00 0.00 0.00 41 1015.2
20210621090935 60 51 4.0 10.0 0.00 0.00 0.00 42 1015.2
20210621090436 60 28 5.0 10.0 0.00 0.00 0.00 42 1015.2
20210621085934 60 51 7.0 10.0 0.00 0.00 0.00 43 1015.6
20210621085434 60 49 4.0 10.0 0.00 0.00 0.00 43 1015.5
20210621084934 60 61 9.0 10.0 0.00 0.00 0.00 43 1015.5
20210621084433 60 67 9.0 10.0 0.00 0.00 0.00 43 1015.5
20210621083935 60 71 9.0 10.0 0.00 0.00 0.00 44 1015.4
20210621083434 60 78 5.0 9.0 0.00 0.00 0.00 43 1015.5
20210621082933 60 26 6.0 9.0 0.00 0.00 0.00 44 1015.4
20210621082433 60 51 9.0 9.0 0.00 0.00 0.00 44 1015.4
20210621081933 60 55 5.0 9.0 0.00 0.00 0.00 43 1015.4
20210621081433 60 48 5.0 9.0 0.00 0.00 0.00 43 1015.5
20210621080933 60 42 5.0 9.0 0.00 0.00 0.00 42 1015.5
20210621080432 60 58 7.0 9.0 0.00 0.00 0.00 42 1015.4
20210621075932 61 51 4.0 9.0 0.00 0.00 0.00 41 1015.3
20210621075432 61 41 6.0 9.0 0.00 0.00 0.00 40 1015.2
20210621074932 61 51 6.0 9.0 0.00 0.00 0.00 40 1015.2
20210621074432 61 44 6.0 9.0 0.00 0.00 0.00 40 1015.2
20210621073932 61 46 4.0 9.0 0.00 0.00 0.00 39 1015.2
20210621073431 61 49 3.0 10.0 0.00 0.00 0.00 40 1015.2
20210621072932 61 31 3.0 10.0 0.00 0.00 0.00 40 1015.2
20210621072431 60 28 4.0 10.0 0.00 0.00 0.00 41 1015.0
20210621071931 60 51 5.0 10.0 0.00 0.00 0.00 41 1015.0
20210621070919 61 59 4.0 10.0 0.00 0.00 0.00 41 1015.4
20210621070419 61 59 6.0 10.0 0.00 0.00 0.00 42 1015.5
20210621065920 61 60 6.0 9.0 0.00 0.00 0.00 41 1015.7
20210621065419 61 38 5.0 9.0 0.00 0.00 0.00 41 1015.8
20210621064919 62 53 5.0 8.0 0.00 0.00 0.00 40 1015.8
20210621064420 62 59 7.0 8.0 0.00 0.00 0.00 40 1015.9
20210621063919 62 48 5.0 8.0 0.00 0.00 0.00 40 1015.9
20210621063419 62 49 5.0 9.0 0.00 0.00 0.00 39 1015.8
20210621062918 63 64 6.0 9.0 0.00 0.00 0.00 39 1015.8
20210621062418 63 74 9.0 9.0 0.00 0.00 0.00 38 1015.8
20210621061919 63 67 8.0 9.0 0.00 0.00 0.00 38 1015.8
20210621061418 62 65 5.0 11.0 0.00 0.00 0.00 38 1015.7
20210621060918 62 29 2.0 11.0 0.00 0.00 0.00 39 1015.7
20210621060418 62 78 3.0 10.0 0.00 0.00 0.00 39 1015.7
20210621055918 62 54 6.0 8.0 0.00 0.00 0.00 39 1015.9
20210621055419 63 46 5.0 9.0 0.00 0.00 0.00 39 1016.0
20210621054918 63 49 5.0 9.0 0.00 0.00 0.00 39 1016.0
20210621054417 63 67 3.0 7.0 0.00 0.00 0.00 40 1015.9
20210621053917 63 46 4.0 7.0 0.00 0.00 0.00 40 1015.9
20210621053417 63 53 5.0 9.0 0.00 0.00 0.00 40 1015.7
20210621052917 63 50 6.0 9.0 0.00 0.00 0.00 40 1015.7
20210621052417 63 43 5.0 9.0 0.00 0.00 0.00 42 1015.8
20210621051917 63 36 2.0 9.0 0.00 0.00 0.00 43 1015.7
20210621051417 63 60 6.0 9.0 0.00 0.00 0.00 44 1015.6
20210621050917 64 42 4.0 9.0 0.00 0.00 0.00 45 1015.9
20210621050416 64 57 3.0 8.0 0.00 0.00 0.00 45 1016.0
20210621045916 64 53 4.0 8.0 0.00 0.00 0.00 47 1015.6
20210621045416 64 42 5.0 8.0 0.00 0.00 0.00 47 1015.5
20210621044917 64 65 4.0 6.0 0.00 0.00 0.00 48 1015.5
20210621044417 64 54 6.0 6.0 0.00 0.00 0.00 48 1015.6
20210621043916 65 56 5.0 6.0 0.00 0.00 0.00 50 1015.8
20210621043416 65 63 4.0 7.0 0.00 0.00 0.00 50 1015.7